Lancaster, PA

10:22 AM EDT on September 18, 2019 (GMT -0400)
Lancaster

Weather History for KLNS - August, 2019

Change the Weather History Date:

Saturday, August 24, 2019

  Actual Average Record
Temperature  
Mean Temperature 67 °F -  
Max Temperature 78 °F 81 °F 89 °F (1980)
Min Temperature 57 °F 59 °F 51 °F (1997)
Cooling Degree Days 2    
Growing Degree Days 17 (Base 50)    
Moisture  
Dew Point 53 °F    
Average Humidity 61    
Maximum Humidity 81    
Minimum Humidity 40    
Precipitation  
Precipitation 0.00 in - - ()
Sea Level Pressure  
Sea Level Pressure 30.18 in    
Wind  
Wind Speed 7 mph (NE)    
Max Wind Speed 10 mph    
Max Gust Speed -    
Visibility 10 miles    
Events      
Averages and records for this station are not official NWS values.
T = Trace of Precipitation, MM = Missing Value Source: NWS Daily Summary

Daily Weather History Graph

Daily Weather History Graph

Search for Another Location

Airport or City:

Astronomy

Aug. 24, 2019 Rise Set
Actual Time 6:25 AM EDT 7:49 PM EDT
Civil Twilight 5:56 AM EDT 8:17 PM EDT
Nautical Twilight 5:22 AM EDT 8:51 PM EDT
Astronomical Twilight 4:46 AM EDT 9:27 PM EDT
Moon 12:16 AM EDT (8/24) 3:02 PM EDT (8/24)
Length of Visible Light 14h 21m
Length of Day
13h 24m
Last Quarter, 39% of the Moon is Illuminated
Aug 24
Last Quarter
Aug 30
New
Sep 5
First Quarter
Sep 14
Full
Sep 21
Last Quarter

Hourly Weather History & Observations

Time (EDT) Temp. Dew Point Humidity Pressure Visibility Wind Dir Wind Speed Gust Speed Precip Events Conditions
12:53 AM 63.0 °F 55.9 °F 78% 30.12 in 10.0 mi North 8.1 mph - N/A   Clear
1:53 AM 62.1 °F 55.0 °F 78% 30.11 in 10.0 mi North 8.1 mph - N/A   Clear
2:53 AM 62.1 °F 54.0 °F 75% 30.11 in 10.0 mi NNE 9.2 mph - N/A   Clear
3:53 AM 60.1 °F 53.1 °F 78% 30.12 in 10.0 mi North 8.1 mph - N/A   Clear
4:53 AM 60.1 °F 53.1 °F 78% 30.13 in 10.0 mi NNE 8.1 mph - N/A   Clear
5:53 AM 60.1 °F 52.0 °F 75% 30.15 in 10.0 mi North 10.4 mph - N/A   Clear
6:53 AM 57.9 °F 52.0 °F 81% 30.18 in 10.0 mi Calm Calm - N/A   Clear
7:53 AM 64.0 °F 53.1 °F 67% 30.19 in 10.0 mi NNE 6.9 mph - N/A   Clear
8:53 AM 66.9 °F 54.0 °F 63% 30.20 in 10.0 mi NE 8.1 mph - N/A   Clear
9:53 AM 70.0 °F 54.0 °F 57% 30.20 in 10.0 mi NE 10.4 mph - N/A   Clear
10:53 AM 72.0 °F 54.0 °F 53% 30.21 in 10.0 mi ENE 8.1 mph - N/A   Clear
11:53 AM 73.9 °F 53.1 °F 48% 30.20 in 10.0 mi ENE 9.2 mph - N/A   Scattered Clouds
12:53 PM 75.9 °F 52.0 °F 43% 30.18 in 10.0 mi Variable 5.8 mph - N/A   Clear
1:33 PM 73.0 °F 52.0 °F 48% 30.19 in 10.0 mi Variable 5.8 mph - N/A   Partly Cloudy
1:53 PM 77.0 °F 51.1 °F 40% 30.19 in 10.0 mi Calm Calm - N/A   Partly Cloudy
3:53 PM 75.9 °F 53.1 °F 45% 30.17 in 10.0 mi NE 8.1 mph - N/A   Mostly Cloudy
4:53 PM 73.9 °F 52.0 °F 46% 30.17 in 10.0 mi East 4.6 mph - N/A   Overcast
5:53 PM 75.0 °F 53.1 °F 46% 30.17 in 10.0 mi East 4.6 mph - N/A   Overcast
6:53 PM 73.9 °F 51.1 °F 45% 30.18 in 10.0 mi NE 4.6 mph - N/A   Mostly Cloudy
7:53 PM 68.0 °F 53.1 °F 59% 30.19 in 10.0 mi North 4.6 mph - N/A   Clear
8:53 PM 64.0 °F 53.1 °F 67% 30.21 in 10.0 mi North 6.9 mph - N/A   Partly Cloudy
9:53 PM 66.0 °F 51.1 °F 59% 30.22 in 10.0 mi Calm Calm - N/A   Clear
10:53 PM 63.0 °F 51.1 °F 65% 30.23 in 10.0 mi ENE 5.8 mph - N/A   Clear
11:53 PM 63.0 °F 52.0 °F 67% 30.24 in 10.0 mi NE 4.6 mph - N/A   Overcast